| time (UTC) | temp F | wind direction | speed MPH | gust MPH | rain 1hr in | rain 24hr in | rain mn in | humidity % | barometer mb |
| 20260506023013 | 56 | 217 | 5.0 | 15.0 | 0.00 | 0.00 | 0.00 | 78 | 1011.7 |
| 20260506021513 | 56 | 155 | 4.0 | 10.0 | 0.00 | 0.00 | 0.00 | 78 | 1011.8 |
| 20260506020013 | 56 | 241 | 5.0 | 13.0 | 0.00 | 0.00 | 0.00 | 77 | 1011.7 |
| 20260506014510 | 56 | 194 | 4.0 | 10.0 | 0.00 | 0.00 | 0.00 | 78 | 1011.7 |
| 20260506013026 | 56 | 148 | 3.0 | 9.0 | 0.00 | 0.00 | 0.00 | 78 | 1011.7 |
| 20260506011521 | 55 | 189 | 2.0 | 8.0 | 0.00 | 0.00 | 0.00 | 79 | 1011.5 |
| 20260506010009 | 55 | 197 | 2.0 | 12.0 | 0.00 | 0.00 | 0.00 | 79 | 1011.4 |
| 20260506004507 | 55 | 157 | 3.0 | 12.0 | 0.00 | 0.00 | 0.00 | 79 | 1011.3 |
| 20260506003007 | 56 | 209 | 3.0 | 11.0 | 0.00 | 0.00 | 0.00 | 79 | 1011.1 |
| 20260506001506 | 56 | 176 | 4.0 | 15.0 | 0.00 | 0.00 | 0.00 | 79 | 1010.7 |
| 20260506000004 | 56 | 208 | 4.0 | 9.0 | 0.00 | 0.00 | 0.00 | 78 | 1010.4 |
| 20260505234504 | 56 | 229 | 4.0 | 12.0 | 0.00 | 0.00 | 0.00 | 78 | 1010.1 |
| 20260505233003 | 56 | 170 | 4.0 | 18.0 | 0.00 | 0.00 | 0.00 | 78 | 1009.9 |
| 20260505231503 | 57 | 159 | 4.0 | 17.0 | 0.00 | 0.00 | 0.00 | 77 | 1009.7 |
| 20260505230004 | 57 | 223 | 5.0 | 13.0 | 0.00 | 0.00 | 0.00 | 77 | 1009.8 |
| 20260505224504 | 57 | 210 | 5.0 | 14.0 | 0.00 | 0.00 | 0.00 | 77 | 1009.7 |
| 20260505223001 | 57 | 163 | 8.0 | 16.0 | 0.00 | 0.00 | 0.00 | 76 | 1009.4 |
| 20260505221604 | 58 | 185 | 5.0 | 20.0 | 0.00 | 0.00 | 0.00 | 76 | 1009.4 |
| 20260505220104 | 58 | 194 | 7.0 | 16.0 | 0.00 | 0.00 | 0.00 | 75 | 1009.2 |
| 20260505214610 | 59 | 188 | 5.0 | 16.0 | 0.00 | 0.00 | 0.00 | 75 | 1009.4 |
| 20260505213059 | 59 | 244 | 5.0 | 16.0 | 0.00 | 0.00 | 0.00 | 74 | 1009.4 |
| 20260505211604 | 60 | 220 | 5.0 | 12.0 | 0.00 | 0.00 | 0.00 | 74 | 1009.2 |
| 20260505210106 | 61 | 176 | 4.0 | 14.0 | 0.00 | 0.00 | 0.00 | 73 | 1008.8 |
| 20260505204603 | 62 | 199 | 6.0 | 14.0 | 0.00 | 0.00 | 0.00 | 72 | 1008.9 |
| 20260505203106 | 61 | 154 | 5.0 | 19.0 | 0.00 | 0.00 | 0.00 | 74 | 1008.9 |
| 20260505201555 | 62 | 128 | 5.0 | 15.0 | 0.00 | 0.00 | 0.00 | 72 | 1009.1 |
| 20260505200107 | 62 | 192 | 6.0 | 19.0 | 0.00 | 0.00 | 0.00 | 72 | 1009.1 |
| 20260505194554 | 63 | 230 | 6.0 | 17.0 | 0.00 | 0.00 | 0.00 | 72 | 1009.2 |
| 20260505193102 | 63 | 161 | 9.0 | 20.0 | 0.00 | 0.00 | 0.00 | 71 | 1009.3 |
| 20260505191557 | 64 | 226 | 6.0 | 14.0 | 0.00 | 0.00 | 0.00 | 71 | 1009.4 |
| 20260505190049 | 64 | 208 | 7.0 | 17.0 | 0.00 | 0.00 | 0.00 | 70 | 1009.3 |
| 20260505184549 | 65 | 190 | 8.0 | 18.0 | 0.00 | 0.00 | 0.00 | 69 | 1009.6 |
| 20260505183047 | 67 | 149 | 7.0 | 18.0 | 0.00 | 0.00 | 0.00 | 66 | 1009.6 |
| 20260505181554 | 68 | 214 | 4.0 | 11.0 | 0.00 | 0.00 | 0.00 | 67 | 1009.6 |
| 20260505180043 | 69 | 211 | 3.0 | 16.0 | 0.00 | 0.00 | 0.00 | 68 | 1009.7 |
| 20260505174541 | 67 | 168 | 5.0 | 17.0 | 0.00 | 0.00 | 0.00 | 68 | 1010.0 |
| 20260505173040 | 67 | 188 | 5.0 | 11.0 | 0.00 | 0.00 | 0.00 | 66 | 1010.3 |
| 20260505171540 | 67 | 153 | 6.0 | 13.0 | 0.00 | 0.00 | 0.00 | 67 | 1010.1 |
| 20260505170038 | 67 | 191 | 4.0 | 12.0 | 0.00 | 0.00 | 0.00 | 70 | 1010.3 |
| 20260505164536 | 66 | 203 | 4.0 | 12.0 | 0.00 | 0.00 | 0.00 | 70 | 1010.5 |
| 20260505163036 | 65 | 223 | 5.0 | 12.0 | 0.00 | 0.00 | 0.00 | 70 | 1010.7 |
| 20260505161542 | 65 | 196 | 4.0 | 15.0 | 0.00 | 0.00 | 0.00 | 71 | 1010.8 |
| 20260505153031 | 67 | 140 | 7.0 | 17.0 | 0.00 | 0.00 | 0.00 | 68 | 1010.5 |
| 20260505151531 | 67 | 195 | 4.0 | 10.0 | 0.00 | 0.00 | 0.00 | 67 | 1010.6 |
| 20260505124515 | 58 | 173 | 4.0 | 13.0 | 0.00 | 0.00 | 0.00 | 78 | 1011.1 |
| 20260505123009 | 58 | 219 | 2.0 | 10.0 | 0.00 | 0.00 | 0.00 | 77 | 1011.2 |
| 20260505121523 | 58 | 197 | 2.0 | 14.0 | 0.00 | 0.00 | 0.00 | 78 | 1011.0 |
| 20260505120006 | 57 | 169 | 3.0 | 12.0 | 0.00 | 0.00 | 0.00 | 79 | 1010.8 |
| 20260505114504 | 56 | 184 | 3.0 | 14.0 | 0.00 | 0.00 | 0.00 | 80 | 1010.8 |
| 20260505113117 | 55 | 159 | 4.0 | 9.0 | 0.00 | 0.00 | 0.00 | 80 | 1010.8 |
| 20260505111557 | 54 | 142 | 4.0 | 10.0 | 0.00 | 0.00 | 0.00 | 82 | 1010.8 |
| 20260505110105 | 53 | 145 | 3.0 | 10.0 | 0.00 | 0.00 | 0.00 | 82 | 1010.8 |
| 20260505101551 | 51 | 219 | 2.0 | 7.0 | 0.00 | 0.00 | 0.00 | 84 | 1010.6 |
| 20260505100047 | 51 | 146 | 1.0 | 5.0 | 0.00 | 0.00 | 0.00 | 85 | 1010.4 |
| 20260505094547 | 51 | 159 | 2.0 | 9.0 | 0.00 | 0.00 | 0.00 | 84 | 1010.4 |
| 20260505093053 | 51 | 164 | 2.0 | 8.0 | 0.00 | 0.00 | 0.00 | 84 | 1010.5 |
| 20260505091543 | 51 | 153 | 2.0 | 9.0 | 0.00 | 0.00 | 0.00 | 84 | 1010.6 |
| 20260505090045 | 51 | 158 | 2.0 | 7.0 | 0.00 | 0.00 | 0.00 | 85 | 1010.6 |
| 20260505084550 | 50 | 153 | 2.0 | 6.0 | 0.00 | 0.00 | 0.00 | 85 | 1010.7 |
| 20260505083051 | 50 | 178 | 1.0 | 5.0 | 0.00 | 0.00 | 0.00 | 85 | 1010.7 |
| 20260505081539 | 50 | 159 | 2.0 | 5.0 | 0.00 | 0.00 | 0.00 | 85 | 1010.7 |
| 20260505080045 | 50 | 179 | 0.0 | 3.0 | 0.00 | 0.00 | 0.00 | 86 | 1010.7 |
| 20260505074537 | 50 | 186 | 1.0 | 3.0 | 0.00 | 0.00 | 0.00 | 86 | 1010.7 |
| 20260505073038 | 50 | 194 | 1.0 | 5.0 | 0.00 | 0.00 | 0.00 | 86 | 1010.8 |
| 20260505071545 | 50 | 181 | 0.0 | 5.0 | 0.00 | 0.00 | 0.00 | 86 | 1010.8 |
| 20260505070034 | 50 | 196 | 1.0 | 8.0 | 0.00 | 0.00 | 0.00 | 86 | 1010.8 |
| 20260505064536 | 50 | 195 | 1.0 | 6.0 | 0.00 | 0.00 | 0.00 | 86 | 1010.8 |
| 20260505063031 | 50 | 206 | 1.0 | 4.0 | 0.00 | 0.00 | 0.00 | 86 | 1010.8 |
| 20260505061533 | 50 | 171 | 1.0 | 6.0 | 0.00 | 0.00 | 0.00 | 86 | 1010.9 |
| 20260505060036 | 49 | 198 | 1.0 | 6.0 | 0.00 | 0.00 | 0.00 | 86 | 1011.0 |
| 20260505054528 | 49 | 156 | 0.0 | 3.0 | 0.00 | 0.00 | 0.00 | 86 | 1011.0 |
| 20260505053028 | 49 | 162 | 1.0 | 5.0 | 0.00 | 0.00 | 0.00 | 85 | 1011.0 |
| 20260505051527 | 49 | 171 | 1.0 | 5.0 | 0.00 | 0.00 | 0.00 | 85 | 1011.0 |
| 20260505041518 | 50 | 138 | 2.0 | 6.0 | 0.00 | 0.00 | 0.00 | 83 | 1011.4 |
| 20260505040016 | 50 | 188 | 1.0 | 5.0 | 0.00 | 0.00 | 0.00 | 83 | 1011.4 |
| 20260505034514 | 50 | 160 | 3.0 | 7.0 | 0.00 | 0.00 | 0.00 | 82 | 1011.3 |
| 20260505033017 | 50 | 186 | 1.0 | 6.0 | 0.00 | 0.00 | 0.00 | 82 | 1011.2 |
| 20260505031514 | 51 | 172 | 1.0 | 5.0 | 0.00 | 0.00 | 0.00 | 82 | 1011.3 |
| 20260505030013 | 51 | 223 | 3.0 | 8.0 | 0.00 | 0.00 | 0.00 | 81 | 1011.4 |
| 20260505024513 | 51 | 183 | 2.0 | 9.0 | 0.00 | 0.00 | 0.00 | 81 | 1011.4 |